Location: Riedlingen
(48.1569°N, 9.4757°E)
Time: 15:48:02
(UTC+02:00)

ISS - Pass Details

Date: 20 May 2021
Orbit: 419 x 422 km, 51.6° (Epoch: 25 June)

Event Time Altitude Azimuth Distance (km) Brightness Sun altitude
Rises 22:46:34 0° 273° (W) 2,370 0.7 -13.7°
Reaches altitude 10° 22:48:43 10° 280° (W) 1,506 -0.3 -13.9°
Maximum altitude 22:51:59 45° 354° (N) 582 -2.6 -14.2°
Drops below altitude 10° 22:55:16 10° 70° (ENE) 1,509 -1.1 -14.5°
Enters shadow 22:56:52 - 75° (ENE) 2,146 -0.4 -14.7°
